Delta, CO

2:25 AM MDT on June 29, 2017 (GMT -0600)
Delta

Weather History for KAJZ - March, 2013

Change the Weather History Date:

Tuesday, March 12, 2013

  Actual Average (KMTJ) Record (KMTJ)
Temperature  
Mean Temperature 46 °F -  
Max Temperature 60 °F 53 °F 66 °F (1997)
Min Temperature 33 °F 26 °F 21 °F (1998)
Degree Days  
Heating Degree Days 18    
Moisture  
Dew Point 26 °F    
Average Humidity 49    
Maximum Humidity 79    
Minimum Humidity 24    
Precipitation  
Precipitation 0.00 in - - ()
Sea Level Pressure  
Sea Level Pressure 30.23 in    
Wind  
Wind Speed 3 mph (WNW)    
Max Wind Speed 18 mph    
Max Gust Speed 22 mph    
Visibility 10 miles    
Events      
Averages and records for this station are not official NWS values.
T = Trace of Precipitation, MM = Missing Value Source: NWS Daily Summary

Daily Weather History Graph

Daily Weather History Graph

Search for Another Location

Airport or City:

Trip Planner

Search our weather history database for the weather conditions in past years. The results will help you decide how hot, cold, wet, or windy it might be!

Date:

Astronomy

Mar. 12, 2013 Rise Set
Actual Time 7:27 AM MDT 7:16 PM MDT
Civil Twilight 7:01 AM MDT 7:43 PM MDT
Nautical Twilight 6:30 AM MDT 8:14 PM MDT
Astronomical Twilight 5:59 AM MDT 8:45 PM MDT
Moon 7:36 AM MDT (3/12) 8:33 PM MDT (3/12)
Length of Visible Light 12h 42m
Length of Day
11h 48m
New Moon, 1% of the Moon is Illuminated
Mar 12
New Moon
Mar 19
First Quarter
Mar 27
Full
Apr 2
Last Quarter
Apr 10
New

Hourly Weather History & Observations

Time (MDT) Temp. Windchill Dew Point Humidity Pressure Visibility Wind Dir Wind Speed Gust Speed Precip Events Conditions
12:15 AM 41.4 °F 38.4 °F 26.6 °F 56% 30.15 in 10.0 mi East 4.6 mph - N/A   Clear
12:35 AM 41.9 °F - 26.6 °F 55% 30.16 in 10.0 mi Calm Calm - N/A   Clear
12:55 AM 42.1 °F - 26.6 °F 54% 30.16 in 10.0 mi Calm Calm - N/A   Clear
1:15 AM 41.0 °F 39.0 °F 27.0 °F 57% 30.16 in 10.0 mi WNW 3.5 mph - N/A   Clear
1:35 AM 39.7 °F 37.6 °F 26.8 °F 60% 30.16 in 10.0 mi WSW 3.5 mph - N/A   Clear
1:55 AM 37.8 °F 34.2 °F 27.0 °F 65% 30.17 in 10.0 mi WSW 4.6 mph - N/A   Clear
2:15 AM 37.8 °F 35.3 °F 27.1 °F 66% 30.17 in 10.0 mi West 3.5 mph - N/A   Clear
2:35 AM 37.6 °F - 27.0 °F 66% 30.18 in 10.0 mi Calm Calm - N/A   Clear
2:55 AM 37.6 °F - 26.6 °F 65% 30.18 in 10.0 mi Calm Calm - N/A   Clear
3:15 AM 38.1 °F - 26.6 °F 63% 30.18 in 10.0 mi Calm Calm - N/A   Clear
3:35 AM 37.4 °F - 26.6 °F 65% 30.18 in 10.0 mi Calm Calm - N/A   Clear
3:55 AM 34.9 °F 32.0 °F 26.1 °F 70% 30.18 in 10.0 mi NE 3.5 mph - N/A   Clear
4:15 AM 36.0 °F - 26.6 °F 69% 30.18 in 10.0 mi Calm Calm - N/A   Clear
4:35 AM 34.3 °F 30.2 °F 26.2 °F 72% 30.18 in 10.0 mi ENE 4.6 mph - N/A   Clear
4:55 AM 34.7 °F 31.8 °F 27.1 °F 74% 30.19 in 10.0 mi NNE 3.5 mph - N/A   Clear
5:15 AM 34.7 °F 31.8 °F 26.6 °F 72% 30.20 in 10.0 mi East 3.5 mph - N/A   Clear
5:35 AM 35.1 °F - 26.8 °F 72% 30.21 in 10.0 mi Calm Calm - N/A   Clear
5:55 AM 34.7 °F - 27.3 °F 74% 30.22 in 10.0 mi Calm Calm - N/A   Clear
6:15 AM 34.7 °F - 28.0 °F 77% 30.23 in 10.0 mi Calm Calm - N/A   Clear
6:35 AM 33.8 °F - 27.9 °F 79% 30.23 in 10.0 mi Calm Calm - N/A   Mostly Cloudy
6:55 AM 34.7 °F - 27.9 °F 76% 30.23 in 10.0 mi Calm Calm - N/A   Overcast
7:15 AM 35.1 °F - 28.2 °F 76% 30.23 in 10.0 mi Calm Calm - N/A   Overcast
7:35 AM 36.0 °F - 28.2 °F 73% 30.24 in 10.0 mi Calm Calm - N/A   Overcast
7:55 AM 36.7 °F 34.1 °F 29.1 °F 74% 30.25 in 10.0 mi NE 3.5 mph - N/A   Overcast
8:15 AM 37.2 °F - 28.8 °F 71% 30.26 in 10.0 mi Calm Calm - N/A   Overcast
8:35 AM 35.4 °F - 28.4 °F 76% 30.26 in 10.0 mi Calm Calm - N/A   Overcast
8:55 AM 37.0 °F - 29.1 °F 73% 30.27 in 10.0 mi Calm Calm - N/A   Scattered Clouds
9:15 AM 39.7 °F - 29.1 °F 66% 30.28 in 10.0 mi Calm Calm - N/A   Clear
9:35 AM 42.3 °F - 29.5 °F 61% 30.28 in 10.0 mi Calm Calm - N/A   Clear
9:55 AM 45.3 °F - 29.8 °F 55% 30.28 in 10.0 mi Calm Calm - N/A   Clear
10:15 AM 46.6 °F - 28.8 °F 50% 30.30 in 10.0 mi East 3.5 mph - N/A   Clear
10:55 AM 49.5 °F - 28.6 °F 45% 30.28 in 10.0 mi Calm Calm - N/A   Clear
11:15 AM 49.5 °F - 27.9 °F 43% 30.26 in 10.0 mi SSE 3.5 mph - N/A   Clear
11:35 AM 51.1 °F - 26.6 °F 39% 30.26 in 10.0 mi Calm Calm - N/A   Clear
11:55 AM 51.8 °F - 26.4 °F 37% 30.26 in 10.0 mi Calm Calm - N/A   Clear
12:15 PM 53.8 °F - 26.4 °F 35% 30.28 in 10.0 mi West 3.5 mph - N/A   Clear
12:35 PM 54.3 °F - 25.9 °F 33% 30.27 in 10.0 mi West 5.8 mph - N/A   Clear
12:55 PM 55.4 °F - 25.7 °F 32% 30.27 in 10.0 mi Calm Calm - N/A   Clear
1:15 PM 57.2 °F - 26.1 °F 30% 30.26 in 10.0 mi West 6.9 mph - N/A   Scattered Clouds
1:35 PM 57.7 °F - 25.5 °F 29% 30.25 in 10.0 mi SW 6.9 mph - N/A   Scattered Clouds
1:55 PM 59.4 °F - 26.2 °F 28% 30.25 in 10.0 mi WSW 12.7 mph - N/A   Scattered Clouds
2:15 PM 59.0 °F - 26.1 °F 28% 30.24 in 10.0 mi WNW 11.5 mph 16.1 mph N/A   Clear
2:35 PM 59.4 °F - 26.2 °F 28% 30.23 in 10.0 mi West 10.4 mph 16.1 mph N/A   Clear
2:55 PM 59.5 °F - 25.7 °F 27% 30.23 in 10.0 mi WSW 6.9 mph 21.9 mph N/A   Clear
3:15 PM 60.4 °F - 25.0 °F 26% 30.22 in 10.0 mi West 13.8 mph 18.4 mph N/A   Clear
3:35 PM 59.4 °F - 25.3 °F 27% 30.22 in 10.0 mi West 11.5 mph 17.3 mph N/A   Clear
3:55 PM 59.9 °F - 23.9 °F 25% 30.21 in 10.0 mi WSW 12.7 mph 17.3 mph N/A   Clear
4:15 PM 60.3 °F - 22.6 °F 24% 30.21 in 10.0 mi WSW 13.8 mph - N/A   Clear
4:35 PM 60.1 °F - 23.0 °F 24% 30.21 in 10.0 mi WSW 13.8 mph 20.7 mph N/A   Clear
4:55 PM 59.4 °F - 23.5 °F 25% 30.21 in 10.0 mi West 17.3 mph 21.9 mph N/A   Clear
5:15 PM 59.5 °F - 25.7 °F 27% 30.21 in 10.0 mi West 18.4 mph - N/A   Clear
5:35 PM 59.2 °F - 23.5 °F 25% 30.21 in 10.0 mi West 12.7 mph 17.3 mph N/A   Clear
5:55 PM 59.5 °F - 22.5 °F 24% 30.21 in 10.0 mi West 11.5 mph - N/A   Clear
6:15 PM 58.8 °F - 21.4 °F 24% 30.21 in 10.0 mi West 8.1 mph - N/A   Clear
6:35 PM 58.1 °F - 23.2 °F 26% 30.21 in 10.0 mi WNW 8.1 mph - N/A   Clear
6:55 PM 57.2 °F - 23.7 °F 28% 30.21 in 10.0 mi WNW 4.6 mph - N/A   Clear
7:15 PM 55.2 °F - 23.9 °F 30% 30.21 in 10.0 mi SW 3.5 mph - N/A   Clear
7:35 PM 52.0 °F - 23.4 °F 33% 30.22 in 10.0 mi Calm Calm - N/A   Clear
7:55 PM 53.1 °F - 23.7 °F 32% 30.23 in 10.0 mi NNE 3.5 mph - N/A   Clear
8:15 PM 50.7 °F - 25.7 °F 38% 30.23 in 10.0 mi North 5.8 mph - N/A   Clear
8:35 PM 48.7 °F - 25.7 °F 41% 30.24 in 10.0 mi North 4.6 mph - N/A   Clear
8:55 PM 48.6 °F - 26.1 °F 42% 30.25 in 10.0 mi North 4.6 mph - N/A   Clear
9:15 PM 47.8 °F - 26.2 °F 43% 30.26 in 10.0 mi Calm Calm - N/A   Clear
9:35 PM 48.0 °F - 25.9 °F 42% 30.27 in 10.0 mi Calm Calm - N/A   Clear
9:55 PM 47.3 °F - 25.7 °F 43% 30.28 in 10.0 mi East 5.8 mph - N/A   Clear
10:15 PM 45.7 °F - 26.6 °F 47% 30.28 in 10.0 mi Calm Calm - N/A   Clear
10:35 PM 46.0 °F - 26.1 °F 46% 30.30 in 10.0 mi Calm Calm - N/A   Clear
10:55 PM 43.2 °F 41.5 °F 26.2 °F 51% 30.30 in 10.0 mi NE 3.5 mph - N/A   Clear
11:15 PM 41.0 °F 36.4 °F 26.6 °F 57% 30.31 in 10.0 mi NE 6.9 mph - N/A   Clear
11:55 PM 40.1 °F 35.3 °F 27.1 °F 60% 30.32 in 10.0 mi NE 6.9 mph - N/A   Clear